Dewpoint
62 62 62 61 60 59 59 58 57 55 55 57 57 57 58 58 58 58 57 56 55 54
58 58 57 56 56 56 56 55 55 55 54 54 55 55 56 55 56 56 54 54 53 53
55 55 54 53 53 53 53 53 53 53 52 53 52 51 52 52 52 52 51 50 50 50
53 53 52 52 51 51 52 51 51 51 51 50 49 49 50 50 49 49 48 49 50 50
52 52 52 52 51 51 51 51 50 50 50 49 48 48 48 48 47 47 47 48 48 48
52 51 51 51 51 51 51 50 50 49 49 48 47 46 47 46 46 46 46 45 45 44
51 51 51 51 50 50 50 49 49 49 48 48 47 46 46 46 45 44 44 44 46 45
51 50 49 49 49 49 49 48 48 48 48 48 47 45 45 45 45 44 43 43 43 43
50 50 49 49 49 49 49 48 48 47 47 46 45 42 40 43 43 43 43 41 39 38
40 42 46 48 48 48 48 49 47 47 46 45 46 40 40 39 42 42 41 42 39 37
39 39 40 44 47 48 48 48 48 47 46 45 44 40 39 38 41 40 39 36 37 37
37 37 37 39 43 44 45 46 47 40 45 44 38 39 39 37 38 35 34 34 35 35
37 37 37 37 38 41 43 44 45 44 40 39 39 38 38 38 36 35 35 34 36 35
35 35 37 38 39 39 42 41 39 39 38 37 37 36 38 38 37 36 35 33 33 33
Lifted_Index
-1 -1 -1 -2 -2 -2 -2 -2 -1 -1 -1 -1 -0 0 0 0 -0 0 0 0 0 -0
-0 -0 -1 -1 -1 -1 -0 -0 -0 0 0 1 1 1 1 1 1 1 1 1 1 1
2 2 2 1 1 2 2 2 2 2 2 2 2 2 2 2 2 2 2 2 2 2
5 4 4 4 4 4 4 4 3 3 3 3 3 2 2 2 3 3 3 3 3 3
5 5 5 5 4 4 4 4 4 4 4 3 3 3 3 2 3 3 3 3 3 3
3 3 4 4 3 3 3 4 4 4 4 4 4 3 3 3 3 3 3 3 3 3
3 3 3 3 3 3 3 3 4 4 4 4 4 3 3 3 3 3 3 2 3 3
3 3 4 4 5 5 4 4 4 4 4 4 4 4 4 3 3 3 2 2 2 3
5 5 6 6 6 7 7 7 6 5 5 4 4 4 3 3 2 1 1 2 2 2
8 9 9 9 9 9 9 9 8 7 6 5 4 3 2 1 1 0 1 1 2 2
12 13 13 12 11 11 10 10 9 8 7 5 4 2 1 0 0 0 0 1 2 3
14 14 14 14 13 12 11 10 9 8 7 5 4 3 2 1 1 1 1 2 3 4
14 14 14 14 14 13 12 10 9 8 6 5 5 4 3 2 2 2 2 3 4 5
14 14 14 14 13 12 11 10 9 8 7 5 5 4 4 3 3 3 3 3 5 5